Woodward, OK

1:58 PM CST on December 13, 2017 (GMT -0600)
West Woodward

Weather History for KWWR - February, 2014

Change the Weather History Date:

Thursday, February 13, 2014

  Actual Average (KGAG) Record (KGAG)
Temperature  
Mean Temperature 44 °F -  
Max Temperature 59 °F 54 °F 83 °F (1954)
Min Temperature 30 °F 25 °F -4 °F (1948)
Degree Days  
Heating Degree Days 20    
Moisture  
Dew Point 31 °F    
Average Humidity 64    
Maximum Humidity 87    
Minimum Humidity 39    
Precipitation  
Precipitation 0.00 in - - ()
Sea Level Pressure  
Sea Level Pressure 29.89 in    
Wind  
Wind Speed 7 mph (SW)    
Max Wind Speed 16 mph    
Max Gust Speed -    
Visibility 10 miles    
Events      
Averages and records for this station are not official NWS values.
T = Trace of Precipitation, MM = Missing Value Source: NWS Daily Summary

Daily Weather History Graph

Daily Weather History Graph

Search for Another Location

Airport or City:

Trip Planner

Search our weather history database for the weather conditions in past years. The results will help you decide how hot, cold, wet, or windy it might be!

Date:

Astronomy

Feb. 13, 2014 Rise Set
Actual Time 7:28 AM CST 6:16 PM CST
Civil Twilight 7:01 AM CST 6:43 PM CST
Nautical Twilight 6:31 AM CST 7:13 PM CST
Astronomical Twilight 6:01 AM CST 7:43 PM CST
Moon 5:26 PM CST 6:21 AM CST
Length of Visible Light 11h 41m
Length of Day
10h 48m
Waxing Gibbous, 99% of the Moon is Illuminated
Feb 13
Waxing Gibbous
Feb 14
Full
Feb 22
Last Quarter
Mar 1
New
Mar 8
First Quarter

Hourly Weather History & Observations

Time (CST) Temp. Windchill Dew Point Humidity Pressure Visibility Wind Dir Wind Speed Gust Speed Precip Events Conditions
12:15 AM 32.0 °F 27.5 °F 24.8 °F 75% 29.95 in 10.0 mi South 4.6 mph - N/A   Clear
12:35 AM 30.2 °F 26.7 °F 24.8 °F 80% 29.95 in 10.0 mi SW 3.5 mph - N/A   Clear
12:55 AM 30.2 °F 25.4 °F 24.8 °F 80% 29.94 in 10.0 mi South 4.6 mph - N/A   Clear
1:15 AM 32.0 °F 25.6 °F 26.6 °F 80% 29.94 in 10.0 mi South 6.9 mph - N/A   Clear
1:35 AM 30.2 °F 25.4 °F 24.8 °F 80% 29.94 in 10.0 mi SSW 4.6 mph - N/A   Clear
1:55 AM 32.0 °F 26.4 °F 26.6 °F 80% 29.93 in 10.0 mi South 5.8 mph - N/A   Clear
2:15 AM 32.0 °F 24.8 °F 26.6 °F 80% 29.93 in 10.0 mi South 8.1 mph - N/A   Clear
2:35 AM 32.0 °F 24.8 °F 26.6 °F 80% 29.93 in 10.0 mi South 8.1 mph - N/A   Clear
2:55 AM 32.0 °F 24.2 °F 26.6 °F 80% 29.91 in 10.0 mi South 9.2 mph - N/A   Clear
3:15 AM 33.8 °F 25.8 °F 26.6 °F 75% 29.92 in 10.0 mi SSW 10.4 mph - N/A   Clear
3:35 AM 32.0 °F 24.2 °F 26.6 °F 80% 29.92 in 10.0 mi SW 9.2 mph - N/A   Clear
3:55 AM 32.0 °F 26.4 °F 26.6 °F 80% 29.91 in 10.0 mi WSW 5.8 mph - N/A   Clear
4:15 AM 30.2 °F 23.4 °F 24.8 °F 80% 29.91 in 10.0 mi WSW 6.9 mph - N/A   Clear
4:35 AM 32.0 °F 23.6 °F 26.6 °F 80% 29.90 in 10.0 mi SW 10.4 mph - N/A   Clear
4:55 AM 32.0 °F 21.6 °F 26.6 °F 80% 29.89 in 10.0 mi SW 15.0 mph - N/A   Clear
5:15 AM 32.0 °F 21.6 °F 28.4 °F 87% 29.89 in 10.0 mi SW 15.0 mph - N/A   Clear
5:35 AM 32.0 °F 22.1 °F 28.4 °F 87% 29.89 in 10.0 mi SW 13.8 mph - N/A   Clear
5:55 AM 32.0 °F 22.1 °F 28.4 °F 87% 29.89 in 10.0 mi SW 13.8 mph - N/A   Clear
6:15 AM 32.0 °F 21.2 °F 28.4 °F 87% 29.89 in 10.0 mi SW 16.1 mph - N/A   Clear
6:35 AM 32.0 °F 22.1 °F 28.4 °F 87% 29.91 in 10.0 mi WSW 13.8 mph - N/A   Clear
6:55 AM 32.0 °F 21.6 °F 28.4 °F 87% 29.92 in 10.0 mi SW 15.0 mph - N/A   Clear
7:15 AM 32.0 °F 22.1 °F 28.4 °F 87% 29.93 in 10.0 mi WSW 13.8 mph - N/A   Clear
7:35 AM 32.0 °F 22.5 °F 28.4 °F 87% 29.93 in 10.0 mi SW 12.7 mph - N/A   Clear
7:55 AM 32.0 °F 22.1 °F 28.4 °F 87% 29.93 in 10.0 mi SW 13.8 mph - N/A   Clear
8:15 AM 32.0 °F 22.1 °F 28.4 °F 87% 29.93 in 10.0 mi SW 13.8 mph - N/A   Clear
8:35 AM 33.8 °F 24.8 °F 30.2 °F 87% 29.94 in 10.0 mi SW 12.7 mph - N/A   Clear
8:55 AM 35.6 °F 27.5 °F 30.2 °F 81% 29.94 in 10.0 mi SW 11.5 mph - N/A   Clear
9:15 AM 37.4 °F 30.8 °F 30.2 °F 75% 29.94 in 10.0 mi SW 9.2 mph - N/A   Clear
9:35 AM 37.4 °F 30.8 °F 32.0 °F 81% 29.95 in 10.0 mi WSW 9.2 mph - N/A   Clear
9:55 AM 41.0 °F 35.8 °F 32.0 °F 70% 29.95 in 10.0 mi WSW 8.1 mph - N/A   Clear
10:15 AM 42.8 °F 38.0 °F 32.0 °F 66% 29.95 in 10.0 mi SW 8.1 mph - N/A   Clear
10:35 AM 44.6 °F 41.4 °F 32.0 °F 61% 29.96 in 10.0 mi SW 5.8 mph - N/A   Clear
10:55 AM 44.6 °F 39.7 °F 32.0 °F 61% 29.95 in 10.0 mi WSW 9.2 mph - N/A   Clear
11:15 AM 50.0 °F - 32.0 °F 50% 29.96 in 10.0 mi WNW 5.8 mph - N/A   Clear
11:35 AM 50.0 °F - 32.0 °F 50% 29.96 in 10.0 mi NNW 6.9 mph - N/A   Clear
11:55 AM 51.8 °F - 32.0 °F 47% 29.96 in 10.0 mi NW 6.9 mph - N/A   Clear
12:15 PM 51.8 °F - 32.0 °F 47% 29.95 in 10.0 mi NNW 8.1 mph - N/A   Clear
12:35 PM 51.8 °F - 32.0 °F 47% 29.94 in 10.0 mi NW 8.1 mph - N/A   Clear
12:55 PM 51.8 °F - 32.0 °F 47% 29.93 in 10.0 mi NNW 5.8 mph - N/A   Clear
1:35 PM 53.6 °F - 32.0 °F 44% 29.90 in 10.0 mi NNW 3.5 mph - N/A   Clear
1:55 PM 53.6 °F - 32.0 °F 44% 29.89 in 10.0 mi NW 4.6 mph - N/A   Clear
2:15 PM 55.4 °F - 32.0 °F 41% 29.88 in 10.0 mi NW 4.6 mph - N/A   Clear
2:35 PM 55.4 °F - 32.0 °F 41% 29.87 in 10.0 mi NW 3.5 mph - N/A   Clear
2:55 PM 57.2 °F - 33.8 °F 41% 29.87 in 10.0 mi West 5.8 mph - N/A   Clear
3:15 PM 57.2 °F - 33.8 °F 41% 29.88 in 10.0 mi West 3.5 mph - N/A   Clear
3:35 PM 59.0 °F - 33.8 °F 39% 29.87 in 10.0 mi Calm Calm - N/A   Clear
3:55 PM 59.0 °F - 33.8 °F 39% 29.87 in 10.0 mi WNW 3.5 mph - N/A   Clear
4:15 PM 59.0 °F - 33.8 °F 39% 29.86 in 10.0 mi Calm Calm - N/A   Clear
4:35 PM 59.0 °F - 33.8 °F 39% 29.87 in 10.0 mi Calm Calm - N/A   Clear
4:55 PM 59.0 °F - 33.8 °F 39% 29.86 in 10.0 mi Calm Calm - N/A   Clear
5:15 PM 59.0 °F - 33.8 °F 39% 29.85 in 10.0 mi Calm Calm - N/A   Clear
5:35 PM 57.2 °F - 33.8 °F 41% 29.85 in 10.0 mi Calm Calm - N/A   Clear
5:55 PM 53.6 °F - 35.6 °F 51% 29.85 in 10.0 mi SSW 4.6 mph - N/A   Clear
6:15 PM 51.8 °F - 35.6 °F 54% 29.85 in 10.0 mi SSW 4.6 mph - N/A   Clear
6:35 PM 50.0 °F - 33.8 °F 54% 29.85 in 10.0 mi SSW 4.6 mph - N/A   Clear
6:55 PM 48.2 °F - 33.8 °F 58% 29.86 in 10.0 mi SSW 6.9 mph - N/A   Clear
7:35 PM 44.6 °F 41.4 °F 33.8 °F 66% 29.85 in 10.0 mi South 5.8 mph - N/A   Clear
7:55 PM 42.8 °F 38.6 °F 33.8 °F 70% 29.85 in 10.0 mi South 6.9 mph - N/A   Clear
8:35 PM 44.6 °F 39.7 °F 33.8 °F 66% 29.83 in 10.0 mi South 9.2 mph - N/A   Clear
8:55 PM 46.4 °F 41.5 °F 33.8 °F 62% 29.82 in 10.0 mi South 10.4 mph - N/A   Clear
9:15 PM 50.0 °F - 33.8 °F 54% 29.81 in 10.0 mi South 9.2 mph - N/A   Clear
9:35 PM 48.2 °F - 33.8 °F 58% 29.80 in 10.0 mi South 8.1 mph - N/A   Clear
9:55 PM 44.6 °F 41.4 °F 33.8 °F 66% 29.79 in 10.0 mi SSE 5.8 mph - N/A   Clear
10:15 PM 46.4 °F 42.9 °F 33.8 °F 62% 29.78 in 10.0 mi SSE 6.9 mph - N/A   Clear
10:35 PM 46.4 °F 42.4 °F 32.0 °F 57% 29.78 in 10.0 mi SSE 8.1 mph - N/A   Clear
10:55 PM 44.6 °F 39.7 °F 32.0 °F 61% 29.77 in 10.0 mi South 9.2 mph - N/A   Clear
11:15 PM 50.0 °F - 32.0 °F 50% 29.76 in 10.0 mi South 11.5 mph - N/A   Clear
11:35 PM 50.0 °F - 32.0 °F 50% 29.75 in 10.0 mi SSW 11.5 mph - N/A   Clear
11:55 PM 50.0 °F - 32.0 °F 50% 29.74 in 10.0 mi SSW 10.4 mph - N/A   Clear